COSMOS 2251 DEB, 34859

Orbit data source: Space-Track

COSMOS 2251 DEB, 34859 is space debris in LEO originally from a launch on Wed, 16 Jun 1993 UTC launched from the Plesetsk Missile And Space Complex (PKMTR). The debris from Iridium 33, an American commercial communications satellite, has been tracked extensively since its accidental collision with the defunct Russian satellite Cosmos 2251 in 2009. This event, occurring at high speed in low Earth orbit (LEO), generated thousands of pieces of space debris, significantly increasing the risk of further collisions. The Iridium 33 debris cloud has impacted space traffic management and orbital debris mitigation strategies, making it a subject of ongoing study in space situational awareness.

Loading next visibility...
Identifier
34859, 1993-036ACD
Orbit
LEO
Country
Flag of CISCIS
Related business
Manufacturer
Unknown
Mission
Spacecraft
Bus & Motor
Unknown
Mass
Unknown
Launch date (UTC)
1993-06-16 (33 years ago)
Launch vehicle
Unknown
Launch site
Plesetsk Missile And Space Complex (PKMTR)
Object type
Payload
Rocket body
Debris
Shape & HBR
Unknown shape, 0.1 m
Radar Cross Section
Small (<0.1 m²)

Expand to show TLE details & history
Last TLE update: 2 days ago

TLE from 2 days ago
0 COSMOS 2251 DEB
1 34859U 93036ACD 25354.02712691  .00052535  00000-0  27292-2 0  9991
2 34859  74.0278 324.4843 0002091  20.5726  48.6407 15.15832734884694
Epoch: 2025-12-20T00:39Z
TLE epoch observation values (Epoch: 2025-12-20T00:39:03.765Z)
Latitude
64.1207°
Longitude
-98.21456°
Altitude
528.192 km
Speed
7.606 km/s
True Right ascension
00h 01m 38s
True Declination
63° 58' 51"
Sunlit
Object was in daylight at epoch
Visualization orbit readout
Latitude
Unknown
Longitude
Unknown
Altitude
Unknown
Speed
Unknown
Apparent Right ascension
Unknown
Apparent Declination
Unknown
Sunlit
N/A
Visualization observer readout
Local Sidereal Time
11:42:21
Azimuth
Unknown
Elevation
Unknown
Doppler factor
Unknown
Orbital elements
Apogee altitude
517.43 km
Perigee altitude
514.547 km
Semi-major axis
6,894.126 km
Eccentricity
0.00021
Inclination
74.0278°
RAAN
324.4843°
Arg. of periapsis
20.5726°
True anomaly
48.65869°
Mean anomaly
48.6407°
Eccentric anomaly
48.64969°
Mean motion
3.79162 °/min
Orbital period
94.95 mins
BSTAR
0.0027292
Loading maneuver chart data...
Computing Atmospheric mass density...
Loading historical data...
Loading historical data...
Loading historical data...
Loading historical data...
Loading historical data...
Loading historical data...
Loading historical data...

Documentation

Showing up to 5 results
|